[[{"header":{"parameterUnit":"m.s-1","parameterCategory":1,"la1":30.2991,"la2":30.254,"lo1":-89.0895,"lo2":-89.0444,"dy":0.0017,"dx":0.0017,"nx":28,"ny":28,"refTime":"2024-04-05T21:00:00:Z","depth":0,"parameterNumber":2,"parameterNumberName":"U-component_of_WINDS"},"data":[0,0,0,0,0,0,0,0,0,0,0,0,0,0,0,0,0,0,0,0,0,0,0,0,0,0,0,0,0,0,0,0,0,0,0,0,0,0,0,0,0,0,0,0,0,0,0,0,0,0,0,0,0,0,0,0,0,0,-0.9244,-0.9243,0,-0.9195,-0.9194,-0.9193,-0.9201,-0.9202,-0.9203,-0.9204,-0.9149,-0.9147,-0.9145,0,0,0,0,0,0,0,0,0,0,0,0,0,-0.9339,-0.9338,-0.9244,-0.9243,-0.9242,-0.9195,-0.9194,-0.9193,-0.9201,-0.9202,-0.9203,-0.9204,-0.915,-0.9148,-0.9145,0,0,0,0,0,0,0,0,0,0,0,0,0,-0.9295,-0.9337,-0.9244,-0.9241,-0.924,-0.9195,-0.9194,-0.9193,-0.9201,-0.9202,-0.9204,-0.9205,-0.9151,-0.9148,-0.9144,-0.9098,0,0,-0.9134,-0.9133,0,0,0,0,0,0,0,0,-0.9297,-0.9291,-0.9242,-0.9241,-0.924,-0.9206,-0.9208,-0.9161,-0.9201,-0.9216,-0.9204,-0.9205,-0.9167,-0.9162,-0.915,-0.9095,-0.9093,-0.9134,-0.9132,-0.913,-0.9129,0,0,0,0,0,0,0,-0.93,-0.9293,-0.9224,-0.9241,-0.924,-0.924,-0.9235,-0.9199,-0.9184,-0.9215,-0.9215,-0.9209,-0.9166,-0.9153,-0.9149,-0.9092,-0.9134,-0.9131,-0.9129,-0.9128,-0.8993,-0.8992,0,0,0,0,0,0,-0.9305,-0.9296,-0.9226,-0.9223,-0.9273,-0.9237,-0.9232,-0.9215,-0.9185,-0.9182,-0.9208,-0.921,-0.9158,-0.9153,-0.9147,-0.9088,-0.913,-0.9127,-0.9125,-0.8995,-0.8993,-0.8991,0,0,0,0,0,0,-0.9307,-0.9299,-0.9228,-0.9259,-0.925,-0.9235,-0.9216,-0.9214,-0.92,-0.918,-0.9177,-0.9198,-0.9159,-0.9152,-0.911,-0.9086,-0.9126,-0.9123,-0.8997,-0.8994,-0.8992,-0.8971,0,0,0,0,0,0,-0.931,-0.9299,-0.9283,-0.9259,-0.9249,-0.9193,-0.9214,-0.9212,-0.9195,-0.9197,-0.917,-0.9166,-0.916,-0.9115,-0.9106,-0.9082,-0.912,-0.8999,-0.8996,-0.8993,-0.8974,-0.8968,-0.8964,0,0,0,0,0,-0.9313,-0.9279,-0.9282,-0.9273,-0.9228,-0.9191,-0.9185,-0.918,-0.9193,-0.9175,-0.9162,-0.9167,-0.9091,-0.911,-0.9101,-0.9076,-0.9,-0.8996,-0.8993,-0.8976,-0.897,-0.8964,0,0,0,0,0,0,-0.9299,-0.9275,-0.9279,-0.9236,-0.9216,-0.9193,-0.917,-0.9173,-0.9148,-0.915,-0.9143,-0.9137,-0.9093,-0.9081,-0.9103,-0.9027,-0.9047,-0.9041,-0.9037,-0.9031,-0.9026,-0.9029,-0.9117,0,0,0,0,0,-0.9291,-0.9265,-0.9245,-0.9209,-0.9199,-0.9186,-0.917,-0.9168,-0.9146,-0.9137,-0.9121,-0.9098,-0.9068,-0.9049,-0.9021,-0.8973,-0.8965,-0.895,-0.8945,-0.8941,-0.8936,-0.8906,-0.8899,-0.898,-0.898,-0.898,0,0,-0.9274,-0.9258,-0.9242,-0.9206,-0.919,-0.9161,-0.9179,-0.9148,-0.9126,-0.9132,-0.9091,-0.9078,-0.9052,-0.9006,-0.8984,-0.8993,-0.8912,-0.8937,-0.8934,-0.8931,-0.8902,-0.8894,-0.8887,-0.8978,-0.8978,-0.8978,0,0,-0.9228,-0.9214,-0.9181,-0.9165,-0.9141,-0.9132,-0.9124,-0.9101,-0.9093,-0.9052,-0.9055,-0.9027,-0.8978,-0.8958,-0.8942,-0.8887,-0.8889,-0.8878,-0.8851,-0.8822,-0.8816,-0.881,-0.8787,-0.878,-0.8873,-0.8873,-0.8873,0,-0.9209,-0.9167,-0.9164,-0.9132,-0.9115,-0.912,-0.9085,-0.9069,-0.9036,-0.9024,-0.9035,-0.8971,-0.8954,-0.8902,-0.8888,-0.8876,-0.8864,-0.888,-0.8817,-0.8811,-0.8806,-0.8784,-0.8776,-0.8872,-0.8872,-0.8872,-0.8872,0,-0.9144,-0.9115,-0.9091,-0.906,-0.9041,-0.9008,-0.8997,-0.8977,-0.8976,-0.8966,-0.8922,-0.8902,-0.8869,-0.8857,-0.8856,-0.8804,-0.881,-0.8819,-0.8838,-0.8797,-0.8776,-0.8768,-0.8869,-0.887,-0.887,-0.8871,0,0,-0.9088,-0.9055,-0.9046,-0.903,-0.9003,-0.898,-0.8946,-0.8915,-0.8896,-0.8874,-0.8843,-0.88,-0.8808,-0.879,-0.8786,-0.8761,-0.8715,-0.8773,-0.8772,-0.8761,-0.8653,-0.8645,-0.8635,-0.8717,-0.8716,-0.8715,-0.8655,0,-0.9037,-0.8979,-0.8974,-0.892,-0.8891,-0.8895,-0.8865,-0.8844,-0.8833,-0.8806,-0.8794,-0.8762,-0.8777,-0.8765,-0.8741,-0.8726,-0.8693,-0.873,-0.8686,-0.8685,-0.869,-0.8625,-0.8617,-0.8561,-0.8647,-0.8646,-0.8645,0,-0.897,-0.8946,-0.8889,-0.8864,-0.8852,-0.8825,-0.8795,-0.877,-0.8745,-0.8739,-0.8717,-0.8716,-0.8679,-0.8701,-0.8648,-0.8673,-0.8655,-0.8645,-0.8642,-0.8636,-0.8661,-0.8615,-0.8543,-0.8534,-0.8632,-0.8633,-0.8634,0,-0.8931,-0.8884,-0.8844,-0.8831,-0.8802,-0.8782,-0.8769,-0.8746,-0.8726,-0.8699,-0.8686,-0.8655,-0.8637,-0.8612,-0.8601,-0.8619,-0.8548,-0.857,-0.8539,-0.8539,-0.8522,-0.8523,-0.8444,-0.8514,-0.8515,-0.8515,-0.8515,0,-0.8874,-0.8839,-0.8825,-0.88,-0.876,-0.8754,-0.8714,-0.8701,-0.868,-0.8651,-0.8652,-0.8625,-0.8614,-0.8584,-0.8575,-0.8531,-0.8523,-0.8515,-0.8513,-0.8514,-0.8514,-0.85,-0.8503,-0.8513,-0.8513,-0.8513,-0.8514,0,-0.8823,-0.8813,-0.8769,-0.8745,-0.8737,-0.8709,-0.8687,-0.8661,-0.8651,-0.8614,-0.8604,-0.8587,-0.8552,-0.8539,-0.8496,-0.849,-0.8438,-0.844,-0.8446,-0.8445,-0.8414,-0.8416,-0.8322,-0.8308,-0.8389,-0.8389,-0.8388,0,-0.8786,-0.8759,-0.8732,-0.8713,-0.8699,-0.8668,-0.8648,-0.8641,-0.862,-0.8589,-0.8566,-0.8531,-0.8502,-0.8445,-0.8427,-0.8393,-0.8393,-0.8362,-0.8388,-0.8389,-0.8389,-0.839,-0.8386,-0.8357,-0.8356,-0.8355,-0.8355,0,-0.8721,-0.8717,-0.8689,-0.8659,-0.8635,-0.8611,-0.8587,-0.8571,-0.8559,-0.8535,-0.8499,-0.8477,-0.8432,-0.8396,-0.8361,-0.8345,-0.8347,-0.8347,-0.8337,-0.8337,-0.834,-0.8335,-0.843,-0.8349,-0.8349,-0.835,-0.835,-0.835,-0.8674,-0.8649,-0.8625,-0.8593,-0.8575,-0.8552,-0.8526,-0.8513,-0.8483,-0.8447,-0.8444,-0.8404,-0.8377,-0.8331,-0.8313,-0.8281,-0.8289,-0.8276,-0.8272,-0.8269,-0.8265,-0.8348,-0.8274,-0.8275,-0.8275,-0.8275,-0.8275,0,-0.8606,-0.8591,-0.8562,-0.8529,-0.8503,-0.8508,-0.8482,-0.8459,-0.8425,-0.8401,-0.8372,-0.8329,-0.8294,-0.8273,-0.8237,-0.8215,-0.8214,-0.8205,-0.8206,-0.8201,-0.8261,-0.8271,-0.8206,-0.8206,-0.8206,-0.8206,-0.8206,-0.8206,-0.8568,-0.8525,-0.8518,-0.8465,-0.845,-0.8412,-0.8396,-0.8374,-0.8354,-0.8307,-0.8278,-0.8265,-0.8241,-0.8204,-0.817,-0.8165,-0.815,-0.814,-0.8135,-0.8191,-0.8198,-0.8204,-0.8214,-0.8138,-0.8138,-0.8078,-0.8077,-0.8077]},{"header":{"parameterUnit":"m.s-1","parameterCategory":1,"la1":30.2991,"la2":30.254,"lo1":-89.0895,"lo2":-89.0444,"dy":0.0017,"dx":0.0017,"nx":28,"ny":28,"refTime":"2024-04-05T21:00:00:Z","depth":0,"parameterNumber":3,"parameterNumberName":"V-component_of_WINDS"},"data":[0,0,0,0,0,0,0,0,0,0,0,0,0,0,0,0,0,0,0,0,0,0,0,0,0,0,0,0,0,0,0,0,0,0,0,0,0,0,0,0,0,0,0,0,0,0,0,0,0,0,0,0,0,0,0,0,0,0,-1.2729,-1.2729,0,-1.2735,-1.2735,-1.2736,-1.2781,-1.2782,-1.2783,-1.2784,-1.2787,-1.2787,-1.2786,0,0,0,0,0,0,0,0,0,0,0,0,0,-1.2754,-1.2753,-1.2729,-1.2729,-1.273,-1.2735,-1.2735,-1.2736,-1.2781,-1.2782,-1.2783,-1.2785,-1.2788,-1.2787,-1.2785,0,0,0,0,0,0,0,0,0,0,0,0,0,-1.275,-1.2753,-1.2729,-1.2753,-1.2755,-1.2735,-1.2735,-1.2736,-1.278,-1.2782,-1.2784,-1.2785,-1.2788,-1.2787,-1.2785,-1.2743,0,0,-1.2781,-1.278,0,0,0,0,0,0,0,0,-1.275,-1.2749,-1.2749,-1.2751,-1.2753,-1.2759,-1.2746,-1.2738,-1.278,-1.277,-1.2784,-1.2786,-1.2776,-1.2776,-1.2773,-1.2743,-1.2743,-1.2781,-1.278,-1.2779,-1.2779,0,0,0,0,0,0,0,-1.275,-1.2749,-1.2732,-1.2749,-1.2752,-1.2762,-1.2763,-1.2744,-1.2764,-1.2771,-1.2775,-1.2775,-1.2778,-1.2775,-1.2774,-1.2743,-1.2781,-1.278,-1.2779,-1.2778,-1.2677,-1.2675,0,0,0,0,0,0,-1.2748,-1.2749,-1.2732,-1.2732,-1.2756,-1.276,-1.2762,-1.2756,-1.2764,-1.2767,-1.2774,-1.2777,-1.2776,-1.2775,-1.2774,-1.2724,-1.2779,-1.2778,-1.2777,-1.2679,-1.2677,-1.2675,0,0,0,0,0,0,-1.2748,-1.2746,-1.2731,-1.2741,-1.274,-1.2758,-1.2751,-1.2755,-1.2752,-1.2766,-1.2769,-1.2767,-1.2778,-1.2776,-1.275,-1.2724,-1.2777,-1.2776,-1.2681,-1.2678,-1.2676,-1.2623,0,0,0,0,0,0,-1.2749,-1.2746,-1.273,-1.2741,-1.274,-1.2708,-1.2749,-1.2754,-1.2749,-1.2754,-1.276,-1.2763,-1.2779,-1.2752,-1.2749,-1.2723,-1.2775,-1.2683,-1.268,-1.2677,-1.2627,-1.2619,-1.2612,0,0,0,0,0,-1.2749,-1.2715,-1.2729,-1.2727,-1.2721,-1.2706,-1.2705,-1.2725,-1.2747,-1.2731,-1.274,-1.2763,-1.2728,-1.2749,-1.2746,-1.2719,-1.2685,-1.2681,-1.2677,-1.263,-1.262,-1.2612,0,0,0,0,0,0,-1.27,-1.2717,-1.2733,-1.2701,-1.2702,-1.2714,-1.2694,-1.2714,-1.2708,-1.2712,-1.2736,-1.2737,-1.2707,-1.2711,-1.2734,-1.2678,-1.2711,-1.2706,-1.2676,-1.2667,-1.2659,-1.2658,-1.2774,0,0,0,0,0,-1.2685,-1.2673,-1.2688,-1.2658,-1.2658,-1.2676,-1.2671,-1.2686,-1.2687,-1.2688,-1.2695,-1.2695,-1.2684,-1.2676,-1.2667,-1.2629,-1.263,-1.2609,-1.2601,-1.2595,-1.2589,-1.2568,-1.2558,-1.2661,-1.2661,-1.2661,0,0,-1.2655,-1.2663,-1.2653,-1.2649,-1.2651,-1.2636,-1.2676,-1.2659,-1.2648,-1.2685,-1.266,-1.2666,-1.2667,-1.2635,-1.2621,-1.2637,-1.2562,-1.259,-1.2585,-1.2582,-1.2562,-1.2553,-1.2544,-1.2659,-1.2659,-1.2659,0,0,-1.2591,-1.2597,-1.2572,-1.2574,-1.2578,-1.259,-1.2584,-1.2593,-1.2598,-1.2575,-1.2602,-1.2589,-1.257,-1.2569,-1.2567,-1.2504,-1.2523,-1.25,-1.2459,-1.2437,-1.2429,-1.2422,-1.2397,-1.2388,-1.2495,-1.2495,-1.2495,0,-1.2552,-1.2532,-1.2556,-1.2537,-1.2534,-1.2568,-1.2542,-1.2543,-1.2543,-1.2539,-1.2558,-1.2535,-1.2538,-1.2505,-1.2489,-1.2487,-1.2479,-1.2498,-1.2429,-1.2422,-1.2415,-1.2392,-1.2383,-1.2492,-1.2492,-1.2493,-1.2493,0,-1.2483,-1.2469,-1.2448,-1.2448,-1.2443,-1.242,-1.244,-1.2431,-1.2447,-1.2457,-1.2432,-1.2438,-1.243,-1.2424,-1.2439,-1.2392,-1.2402,-1.2425,-1.2457,-1.2402,-1.238,-1.2371,-1.2488,-1.2489,-1.249,-1.249,0,0,-1.2386,-1.24,-1.2392,-1.2392,-1.2399,-1.2388,-1.2367,-1.236,-1.2351,-1.2351,-1.2332,-1.2316,-1.2337,-1.2334,-1.235,-1.2331,-1.2278,-1.2356,-1.2356,-1.2339,-1.2224,-1.2205,-1.2194,-1.2292,-1.2291,-1.229,-1.2223,0,-1.2323,-1.2288,-1.2309,-1.2271,-1.2257,-1.229,-1.2271,-1.2273,-1.2282,-1.2271,-1.2281,-1.2268,-1.2298,-1.2296,-1.2279,-1.2288,-1.2255,-1.2293,-1.2273,-1.2272,-1.2269,-1.2183,-1.2163,-1.21,-1.2215,-1.2214,-1.2213,0,-1.2244,-1.224,-1.2201,-1.221,-1.2205,-1.2188,-1.2183,-1.2173,-1.2175,-1.2183,-1.2179,-1.22,-1.2179,-1.2213,-1.2183,-1.2209,-1.2202,-1.2205,-1.2203,-1.22,-1.2237,-1.2175,-1.2081,-1.207,-1.22,-1.2201,-1.2202,0,-1.2174,-1.216,-1.2133,-1.2133,-1.2144,-1.2131,-1.2134,-1.2139,-1.2133,-1.2129,-1.2125,-1.2118,-1.2113,-1.2107,-1.2124,-1.2148,-1.2091,-1.2127,-1.2095,-1.2094,-1.2079,-1.2079,-1.198,-1.208,-1.208,-1.208,-1.208,0,-1.2099,-1.2073,-1.2102,-1.2085,-1.2057,-1.2082,-1.2052,-1.2059,-1.2063,-1.2048,-1.2077,-1.2061,-1.2087,-1.2074,-1.2088,-1.2059,-1.2058,-1.2062,-1.2065,-1.2058,-1.2057,-1.2051,-1.2055,-1.2078,-1.2078,-1.2079,-1.2079,0,-1.2015,-1.2034,-1.2007,-1.202,-1.2023,-1.2,-1.2011,-1.1996,-1.2008,-1.1988,-1.1984,-1.2002,-1.1988,-1.2006,-1.1994,-1.2003,-1.1964,-1.1976,-1.1963,-1.1965,-1.1931,-1.1933,-1.1822,-1.1808,-1.192,-1.1919,-1.1918,0,-1.1964,-1.1945,-1.1956,-1.1948,-1.1951,-1.1938,-1.1932,-1.1957,-1.1949,-1.1951,-1.1935,-1.1924,-1.1916,-1.1892,-1.1903,-1.1894,-1.1904,-1.1866,-1.1902,-1.1894,-1.19,-1.1899,-1.1896,-1.1857,-1.1856,-1.1854,-1.1854,0,-1.1872,-1.1882,-1.1874,-1.1868,-1.1861,-1.1858,-1.1856,-1.1848,-1.1873,-1.1864,-1.1851,-1.1845,-1.1833,-1.182,-1.1814,-1.1817,-1.1838,-1.1843,-1.1834,-1.1824,-1.1817,-1.1818,-1.1939,-1.1844,-1.1845,-1.1846,-1.1846,-1.1847,-1.1801,-1.1785,-1.179,-1.1779,-1.1781,-1.1779,-1.1765,-1.1776,-1.1765,-1.1758,-1.1773,-1.1755,-1.1758,-1.1752,-1.1752,-1.1738,-1.1754,-1.1743,-1.1739,-1.1735,-1.1729,-1.1822,-1.1738,-1.1738,-1.1738,-1.1738,-1.1739,0,-1.1708,-1.1713,-1.1703,-1.1701,-1.1692,-1.1716,-1.1715,-1.1706,-1.169,-1.1692,-1.1684,-1.1668,-1.1656,-1.1667,-1.1657,-1.1644,-1.1653,-1.164,-1.164,-1.1639,-1.1716,-1.1723,-1.1632,-1.1632,-1.1632,-1.1632,-1.1632,-1.1632,-1.1658,-1.1631,-1.1642,-1.1616,-1.1622,-1.1605,-1.1603,-1.1601,-1.1602,-1.1583,-1.1574,-1.1582,-1.1586,-1.1577,-1.1567,-1.1571,-1.1564,-1.1547,-1.1553,-1.1624,-1.1634,-1.1644,-1.1651,-1.1546,-1.1546,-1.1478,-1.1477,-1.1476]}]]